TimePDT,TemperatureF,Dew PointF,Humidity,Sea Level PressureIn,VisibilityMPH,Wind Direction,Wind SpeedMPH,Gust SpeedMPH,PrecipitationIn,Events,Conditions,WindDirDegrees,DateUTC
12:56 AM,60.1,35.1,39,29.97,10.0,WSW,3.5,-,N/A,,Clear,240,2013-09-07 07:56:00
1:56 AM,57.9,35.1,42,29.97,10.0,West,8.1,-,N/A,,Clear,260,2013-09-07 08:56:00
2:56 AM,57.0,33.1,40,29.96,10.0,Calm,Calm,-,N/A,,Clear,0,2013-09-07 09:56:00
3:56 AM,55.9,30.0,37,29.96,10.0,Calm,Calm,-,N/A,,Clear,0,2013-09-07 10:56:00
4:56 AM,55.9,28.9,36,29.97,10.0,WNW,3.5,-,N/A,,Clear,300,2013-09-07 11:56:00
5:56 AM,50.0,28.9,44,29.97,10.0,Calm,Calm,-,N/A,,Clear,0,2013-09-07 12:56:00
6:56 AM,51.1,36.0,56,29.99,10.0,SSW,3.5,-,N/A,,Clear,210,2013-09-07 13:56:00
7:56 AM,57.9,34.0,41,30.00,10.0,Calm,Calm,-,N/A,,Clear,0,2013-09-07 14:56:00
8:56 AM,66.0,30.9,27,30.00,10.0,Calm,Calm,-,N/A,,Clear,0,2013-09-07 15:56:00
9:01 AM,66.2,30.2,26,30.10,10.0,Calm,Calm,-,N/A,,Clear,0,2013-09-07 16:01:00
9:56 AM,72.0,30.0,21,30.01,10.0,Variable,3.5,-,N/A,,Clear,0,2013-09-07 16:56:00
10:56 AM,75.9,30.9,19,30.00,10.0,Variable,3.5,-,N/A,,Clear,0,2013-09-07 17:56:00
11:56 AM,81.0,28.9,15,29.98,10.0,NNW,4.6,-,N/A,,Partly Cloudy,330,2013-09-07 18:56:00
12:56 PM,82.9,28.9,14,29.96,10.0,Calm,Calm,-,N/A,,Partly Cloudy,0,2013-09-07 19:56:00
1:56 PM,87.1,30.0,13,29.93,10.0,NE,6.9,-,N/A,,Partly Cloudy,40,2013-09-07 20:56:00
2:56 PM,88.0,28.0,12,29.91,10.0,North,9.2,-,N/A,,Partly Cloudy,350,2013-09-07 21:56:00
3:56 PM,89.1,28.0,11,29.89,10.0,North,5.8,-,N/A,,Partly Cloudy,10,2013-09-07 22:56:00
4:56 PM,89.6,26.6,10,29.88,10.0,Variable,4.6,-,N/A,,Scattered Clouds,0,2013-09-07 23:56:00
5:56 PM,87.8,26.6,11,29.87,10.0,Calm,Calm,-,N/A,,Scattered Clouds,0,2013-09-08 00:56:00
6:56 PM,84.9,27.0,12,29.86,10.0,East,3.5,-,N/A,,Clear,80,2013-09-08 01:56:00
7:56 PM,77.0,25.0,15,29.88,10.0,Calm,Calm,-,N/A,,Clear,0,2013-09-08 02:56:00
8:56 PM,73.0,33.1,23,29.90,10.0,Calm,Calm,-,N/A,,Clear,0,2013-09-08 03:56:00
9:56 PM,69.1,34.0,27,29.91,10.0,NNW,5.8,-,N/A,,Clear,330,2013-09-08 04:56:00
10:56 PM,70.0,33.1,26,29.92,10.0,WNW,8.1,-,N/A,,Clear,290,2013-09-08 05:56:00
11:56 PM,64.9,34.0,32,29.94,10.0,SSE,5.8,-,N/A,,Clear,160,2013-09-08 06:56:00